Location: Paddlesworth
(51.1000°N, 1.1333°E)
Time: 08:37:25
(UTC+00:00)

Cosmos 1536 - Pass Details

Date: 11 May 2021
Orbit: 539 x 558 km, 82.5° (Epoch: 20 June)

Event Time Altitude Azimuth Distance (km) Brightness Sun altitude
Rises 21:02:49 0° 357° (N) 2,752 7.3 -11.5°
Reaches altitude 10° 21:05:13 10° 8° (N) 1,848 6.1 -11.8°
Maximum altitude 21:08:50 30° 71° (ENE) 1,004 4.0 -12.1°
Enters shadow 21:11:08 18° 121° (ESE) 1,401 4.3 -12.4°
